Location: Unspecified
(60.3052°N, 5.3304°E)
Time: 18:24:21
(UTC+02:00)

ISS - Visible Passes

Search period start: 26 September 2021 00:00
Search period end: 06 October 2021 00:00
Orbit: 417 x 423 km, 51.6° (Epoch: 26 September)

Date Brightness Start Highest point End Pass type
(mag) Time Alt. Az. Time Alt. Az. Time Alt. Az.
26 Sep -1.8 21:03:34 10° SW 21:06:01 19° S 21:07:19 15° SSE visible
27 Sep -1.8 20:16:28 10° SW 20:18:57 19° S 20:21:26 10° SE visible
27 Sep -1.4 21:53:10 10° SW 21:54:48 14° SSW 21:54:48 14° SSW visible
28 Sep -1.5 21:05:51 10° SW 21:07:58 16° SSW 21:09:22 13° SSE visible
29 Sep -1.5 20:18:44 10° SW 20:21:03 17° S 20:23:22 10° SSE visible
30 Sep -1.1 21:09:03 10° SW 21:10:05 11° SSW 21:11:08 10° S visible
01 Oct -1.1 20:21:36 10° SW 20:23:19 13° SSW 20:25:02 10° S visible
